Date,TemperatureHighF,TemperatureAvgF,TemperatureLowF,DewpointHighF,DewpointAvgF,DewpointLowF,HumidityHigh,HumidityAvg,HumidityLow,PressureMaxIn,PressureMinIn,WindSpeedMaxMPH,WindSpeedAvgMPH,GustSpeedMaxMPH,PrecipitationSumIn
2013-3-1,39.9,34.2,30.7,35.7,28.2,22.2,100,80,63,29.71,29.56,3,0,13,0.28
2013-3-2,40.8,33.4,29.5,28.6,24.4,18.5,84,70,56,29.70,29.65,3,0,14,0.05
2013-3-3,39.7,32.7,27.6,35.7,26.6,21.4,92,79,63,29.67,29.59,3,0,10,0.02
2013-3-4,36.6,30.5,26.5,28.3,21.7,17.3,86,70,63,29.79,29.63,6,1,18,0.00
2013-3-5,45.2,33.6,26.5,30.5,23.4,18.4,84,67,50,30.10,29.79,3,0,13,0.00
2013-3-6,38.4,33.8,30.8,31.7,27.2,22.5,88,77,61,30.19,30.08,12,1,21,0.06
2013-3-7,35.2,31.3,29.1,29.9,25.8,21.9,92,80,66,30.17,30.07,7,0,14,0.06
2013-3-8,40.3,33.1,29.4,29.0,21.6,6.8,92,66,29,30.22,30.03,2,0,9,0.14
2013-3-9,52.1,35.3,25.3,30.3,17.6,-5.9,96,57,13,30.38,30.21,2,0,9,0.00
2013-3-10,50.7,35.0,21.5,34.6,27.2,19.3,96,75,54,30.42,30.28,2,0,7,0.00
2013-3-11,48.9,39.3,32.9,38.3,30.7,21.8,95,73,49,30.31,30.14,5,0,13,0.00
2013-3-12,44.0,39.4,35.6,42.9,38.4,31.9,100,96,82,30.15,29.73,0,0,6,0.68
2013-3-13,47.7,37.4,28.9,39.7,26.8,13.5,100,68,42,29.80,29.73,5,0,14,0.00
2013-3-14,35.1,28.3,19.3,28.5,16.2,3.8,92,62,42,29.84,29.71,7,1,20,0.00
2013-3-15,40.1,26.5,16.0,29.1,11.3,0.8,92,55,29,29.86,29.62,6,0,15,0.00
2013-3-16,37.1,29.1,21.3,25.2,12.5,5.1,84,51,34,29.89,29.70,5,0,12,0.00
2013-3-17,34.7,24.3,16.2,17.8,6.2,-3.6,84,49,27,30.33,29.89,6,0,17,0.00
2013-3-18,38.6,25.1,7.5,19.9,2.2,-4.9,79,41,19,30.46,30.23,2,0,7,0.00
2013-3-19,32.5,28.9,24.6,31.1,26.0,17.6,100,89,63,30.23,29.71,5,0,15,0.01
2013-3-20,38.3,28.1,20.9,24.4,18.2,8.0,96,68,47,29.79,29.70,6,0,16,0.28
2013-3-21,43.9,27.4,12.8,21.1,12.3,2.9,95,57,28,29.80,29.60,5,0,12,0.09
2013-3-22,43.8,30.8,20.0,24.0,18.7,11.1,91,63,39,29.74,29.64,5,0,15,0.00
2013-3-23,41.6,31.3,21.6,21.9,17.2,12.1,84,57,38,29.79,29.66,7,1,18,0.00
2013-3-24,46.3,34.8,26.5,25.9,20.2,14.0,71,56,41,29.86,29.75,5,0,14,0.00
2013-3-25,43.9,33.7,23.9,30.8,23.9,18.6,91,69,48,29.81,29.57,5,0,12,0.00
2013-3-26,48.9,37.6,30.8,29.5,19.6,6.0,75,51,28,29.81,29.60,5,0,13,0.00
2013-3-27,51.1,37.3,26.7,31.1,23.1,16.2,88,59,34,29.92,29.78,6,1,15,0.00
2013-3-28,48.6,39.0,33.9,38.1,29.7,21.0,100,71,47,30.05,29.92,5,0,10,0.00
2013-3-29,52.8,40.1,33.2,34.4,28.2,22.2,88,64,39,30.08,30.02,3,0,13,0.00
2013-3-30,54.7,39.3,29.7,35.4,19.3,0.5,88,51,19,30.13,30.03,5,0,12,0.00
2013-3-31,54.9,39.8,25.2,34.7,20.6,11.4,88,53,20,30.14,29.81,7,1,18,0.12